Regional Weather Roundup
Issued by NWS Burlington, VT

Home | Current Version | Previous Version | Text Only | Print | Product List | Glossary On
Versions: 1 2 3 4 5 6 7 8 9 10 11 12 13 14 15 16 17 18 19 20 21 22 23 24 25 26 27 28 29 30 31 32 33 34 35 36 37 38 39 40 41 42 43 44 45 46 47 48 49 50
000
ASUS41 KBTV 101230
RWRBTV
VERMONT REGIONAL WEATHER ROUNDUP
NATIONAL WEATHER SERVICE BURLINGTON VT
700 AM EST SAT DEC 10 2016

NOTE: "FAIR" INDICATES FEW OR NO CLOUDS BELOW 12,000 FEET WITH NO
SIGNIFICANT WEATHER AND/OR OBSTRUCTIONS TO VISIBILITY.

* THESE REPORTS ARE NOT UNDER NWS QUALITY CONTROL AND/OR DO NOT
  REPORT WEATHER SUCH AS PRECIPITATION AND FOG.

VTZ001>019-101300-
_____VERMONT_____


CITY           SKY/WX    TMP DP  RH WIND       PRES   REMARKS
BURLINGTON     MOCLDY    20   7  57 NW16      30.30R WCI   6
6HR MIN TEMP:  20; 6HR MAX TEMP:  22; 6HR PCP: TRACE;

MONTPELIER     CLOUDY    15   7  70 NW7       30.24R WCI   5
6HR MIN TEMP:  15; 6HR MAX TEMP:  16; 6HR PCP: TRACE;

MORRISVILLE    CLOUDY    16   3  56 N5        30.27R WCI   9
6HR MIN TEMP:  16; 6HR MAX TEMP:  18; 6HR PCP: TRACE;

ST. JOHNSBURY*   N/A     17   5  59 MISG      30.22R
6HR MIN TEMP:  17; 6HR MAX TEMP:  18;

LYNDONVILLE*   CLOUDY    12   4  70 W7        30.21R WCI   2
6HR MIN TEMP:  13; 6HR MAX TEMP:  15;

MIDDLEBURY*    CLOUDY    20   8  61 N6        30.29R WCI  12
6HR MIN TEMP:  19; 6HR MAX TEMP:  20;

RUTLAND*       CLOUDY    15   8  73 NW5       30.27R WCI   8
6HR MIN TEMP:  14; 6HR MAX TEMP:  18;

SPRINGFIELD    CLOUDY    17   5  59 NW7       30.27R WCI   8
6HR MIN TEMP:  16; 6HR MAX TEMP:  19;

HIGHGATE*      CLOUDY    17   8  67 CALM      30.32R
6HR MIN TEMP:  17; 6HR MAX TEMP:  20;

NEWPORT*       CLOUDY    13   4  67 NW8       30.25R WCI   1
6HR MIN TEMP:  12; 6HR MAX TEMP:  15;

BENNINGTON     CLOUDY    15   5  64 SW3       30.28R
6HR MIN TEMP:  14; 6HR MAX TEMP:  20;

ISLAND POND*     N/A     10 N/A N/A NW8         N/A  WCI  -1
GALLUP MILLS*    N/A     10 N/A N/A MISG        N/A
UNION VILLAGE*   N/A     19 N/A N/A MISG        N/A
MT. MANSFIELD*   N/A      1 N/A N/A NW38        N/A  WCI -26

_____LAKE CHAMPLAIN_____


CITY           SKY/WX    TMP DP  RH WIND       PRES   REMARKS
BURTON ISLAND*   N/A     23  12  63 NW7         N/A  WCI  15
COLCHESTER RF*   N/A     23  14  68 N21         N/A  WCI   8
DIAMOND ISL*     N/A     23  10  58 NW12        N/A  WCI  12

$$

NYZ007-026>031-035-052-083-087-101300-
_____NORTHERN NEW YORK_____


CITY           SKY/WX    TMP DP  RH WIND       PRES   REMARKS
PLATTSBURGH    CLOUDY    19   8  62 NW5       30.32R WCI  12
6HR MIN TEMP:  18; 6HR MAX TEMP:  22; 6HR PCP: TRACE;

SARANAC LAKE   CLOUDY    12   6  77 CALM      30.20R
6HR MIN TEMP:  11; 6HR MAX TEMP:  12; 6HR PCP:  0.01;

MASSENA        CLOUDY    19  12  74 SW5       30.35R WCI  12
6HR MIN TEMP:  18; 6HR MAX TEMP:  20;

OGDENSBURG*    CLEAR     16  14  93 CALM      30.35R
6HR MIN TEMP:  15; 6HR MAX TEMP:  19;

POTSDAM*       PTCLDY    14  14 100 SW3       30.34R
STARK FALLS*     N/A     12 N/A N/A SW3         N/A
WATERTOWN      CLEAR     10   9  95 CALM      30.35R
6HR MIN TEMP:  10; 6HR MAX TEMP:  21;

FT DRUM        CLEAR      9   5  85 S3        30.31R
6HR MIN TEMP:   7; 6HR MAX TEMP:  17;

ALBANY         CLOUDY    20  12  71 NW6       30.35R WCI  12
6HR MIN TEMP:  16; 6HR MAX TEMP:  20;

GLENS FALLS      N/A     16   6  65 VRB6      30.33R WCI   7
6HR MIN TEMP:  14; 6HR MAX TEMP:  22;


$$
NHZ002-005-011-101300-
_____NEW HAMPSHIRE_____


CITY           SKY/WX    TMP DP  RH WIND       PRES   REMARKS
LEBANON        FLURRIES  20  10  65 NW8       30.24R WCI  10
6HR MIN TEMP:  19; 6HR MAX TEMP:  21; 6HR PCP: TRACE;

KEENE          CLEAR     16   7  67 CALM      30.28R
6HR MIN TEMP:  15; 6HR MAX TEMP:  20; 6HR PCP:  0.02;

MT WASHINGTON  BLWGSNOW -11 -11 100 NW60        N/A  VSB 1/16WCI -49
6HR MIN TEMP: -12; 6HR MAX TEMP: -10;

PLYMOUTH         N/A     18   7  61 NW5       30.22R WCI  11
6HR MIN TEMP:  17; 6HR MAX TEMP:  19;

WHITEFIELD     CLOUDY    14   4  64 CALM      30.19R
6HR MIN TEMP:  14; 6HR MAX TEMP:  15;


$$

_____REGIONAL QUEBEC LOCATIONS_____


CITY           SKY/WX    TMP DP  RH WIND       PRES   REMARKS
MONTREAL       PTCLDY    16   5  62 W8        30.33R WCI   5
QUEBEC CITY    MOCLDY     5  -2  72 SW12      30.21R WCI -11
SHERBROOKE     CLOUDY    10   3  72 W3        30.21S

_____REGIONAL ONTARIO LOCATIONS_____


CITY           SKY/WX    TMP DP  RH WIND       PRES   REMARKS
OTTAWA         MOCLDY    14  10  85 W5        30.33R WCI   6

______KEY______
VSB  - VISIBILITY IN MILES
WCI  - WIND CHILL INDEX
HX   - HEAT INDEX
$$
NNNN



USA.gov is the U.S. government's official web portal to all federal, state and local government web resources and services.